Sterling, IL

3:39 AM CDT on April 25, 2017 (GMT -0500)
Whiteside County-Bittorf

Weather History for KSQI - January, 2012

Change the Weather History Date:

Monday, January 23, 2012

  Actual Average Record
Temperature  
Mean Temperature 29 °F -  
Max Temperature 30 °F 25 °F 46 °F (2002)
Min Temperature 28 °F 12 °F -9 °F (2008)
Degree Days  
Heating Degree Days 36    
Moisture  
Dew Point 24 °F    
Average Humidity 79    
Maximum Humidity 93    
Minimum Humidity 69    
Precipitation  
Precipitation 0.00 in - - ()
Sea Level Pressure  
Sea Level Pressure 29.82 in    
Wind  
Wind Speed 24 mph (West)    
Max Wind Speed 30 mph    
Max Gust Speed 38 mph    
Visibility 10 miles    
Events      
Averages and records for this station are not official NWS values.
T = Trace of Precipitation, MM = Missing Value Source: NWS Daily Summary

Daily Weather History Graph

Daily Weather History Graph

Search for Another Location

Airport or City:

Trip Planner

Search our weather history database for the weather conditions in past years. The results will help you decide how hot, cold, wet, or windy it might be!

Date:

Astronomy

Jan. 23, 2012 Rise Set
Actual Time 7:19 AM CST 5:02 PM CST
Civil Twilight 6:48 AM CST 5:32 PM CST
Nautical Twilight 6:15 AM CST 6:06 PM CST
Astronomical Twilight 5:42 AM CST 6:39 PM CST
Moon 7:13 AM CST (1/23) 5:51 PM CST (1/23)
Length of Visible Light 10h 43m
Length of Day
9h 43m
New Moon, 0% of the Moon is Illuminated
Jan 23
New Moon
Jan 30
First Quarter
Feb 7
Full
Feb 14
Last Quarter
Feb 21
New

Hourly Weather History & Observations

Time (CST) Temp. Windchill Dew Point Humidity Pressure Visibility Wind Dir Wind Speed Gust Speed Precip Events Conditions
12:15 PM 30.2 °F 16.2 °F 28.4 °F 93% 29.61 in - West 25.3 mph - N/A   Unknown
12:35 PM 30.2 °F 16.2 °F 26.6 °F 86% 29.62 in 10.0 mi West 25.3 mph 36.8 mph N/A   Overcast
12:55 PM 30.2 °F 15.4 °F 24.8 °F 80% 29.64 in 10.0 mi West 28.8 mph 38.0 mph N/A   Overcast
1:15 PM 30.2 °F 16.5 °F 24.8 °F 80% 29.65 in 10.0 mi West 24.2 mph 36.8 mph N/A   Overcast
1:35 PM 30.2 °F 15.2 °F 24.8 °F 80% 29.65 in 10.0 mi West 29.9 mph 38.0 mph N/A   Overcast
1:55 PM 30.2 °F 15.7 °F 24.8 °F 80% 29.67 in 10.0 mi West 27.6 mph 34.5 mph N/A   Overcast
2:35 PM 30.2 °F 17.1 °F 23.0 °F 75% 29.70 in 10.0 mi West 21.9 mph - N/A   Overcast
2:55 PM 30.2 °F 17.1 °F 23.0 °F 75% 29.71 in 10.0 mi West 21.9 mph 29.9 mph N/A   Overcast
3:15 PM 30.2 °F 15.9 °F 21.2 °F 69% 29.73 in 10.0 mi West 26.5 mph 32.2 mph N/A   Overcast
3:35 PM 30.2 °F 16.2 °F 23.0 °F 75% 29.74 in 10.0 mi West 25.3 mph 35.7 mph N/A   Overcast
3:55 PM 30.2 °F 16.8 °F 23.0 °F 75% 29.76 in 10.0 mi West 23.0 mph 32.2 mph N/A   Overcast
4:35 PM 30.2 °F 16.2 °F 23.0 °F 75% 29.80 in 9.0 mi West 25.3 mph 31.1 mph N/A   Overcast
4:55 PM 30.2 °F 16.5 °F 24.8 °F 80% 29.81 in 8.0 mi West 24.2 mph 31.1 mph N/A   Overcast
5:15 PM 30.2 °F 16.8 °F 24.8 °F 80% 29.82 in 7.0 mi West 23.0 mph - N/A   Overcast
5:35 PM 30.2 °F 15.9 °F 24.8 °F 80% 29.83 in 10.0 mi West 26.5 mph 32.2 mph N/A   Overcast
6:15 PM 30.2 °F 17.8 °F 24.8 °F 80% 29.86 in 10.0 mi West 19.6 mph - N/A   Overcast
7:15 PM 30.2 °F 16.5 °F 24.8 °F 80% 29.88 in 8.0 mi West 24.2 mph - N/A   Overcast
7:35 PM 30.2 °F 18.1 °F 24.8 °F 80% 29.89 in 9.0 mi West 18.4 mph - N/A   Overcast
7:55 PM 28.4 °F 15.1 °F 23.0 °F 80% 29.89 in 9.0 mi West 20.7 mph - N/A   Overcast
8:15 PM 28.4 °F 14.4 °F 24.8 °F 86% 29.90 in 10.0 mi West 23.0 mph 26.5 mph N/A   Overcast
8:35 PM 28.4 °F 15.8 °F 23.0 °F 80% 29.91 in 10.0 mi West 18.4 mph 26.5 mph N/A   Overcast
8:56 PM 28.4 °F 14.7 °F 23.0 °F 80% 29.91 in 10.0 mi West 21.9 mph 26.5 mph N/A   Overcast
9:15 PM 28.4 °F 14.7 °F 23.0 °F 80% 29.92 in 10.0 mi West 21.9 mph - N/A   Overcast
9:35 PM 28.4 °F 15.8 °F 23.0 °F 80% 29.92 in 10.0 mi West 18.4 mph 24.2 mph N/A   Overcast
9:55 PM 28.4 °F 15.4 °F 23.0 °F 80% 29.93 in 10.0 mi West 19.6 mph 23.0 mph N/A   Overcast
10:15 PM 28.4 °F 15.4 °F 23.0 °F 80% 29.94 in 10.0 mi West 19.6 mph - N/A   Overcast
10:35 PM 28.4 °F 15.8 °F 21.2 °F 74% 29.95 in 10.0 mi West 18.4 mph 25.3 mph N/A   Overcast
10:55 PM 28.4 °F 15.8 °F 21.2 °F 74% 29.95 in 10.0 mi West 18.4 mph - N/A   Overcast
11:35 PM 28.4 °F 15.8 °F 23.0 °F 80% 29.96 in 10.0 mi West 18.4 mph 25.3 mph N/A   Overcast
11:55 PM 28.4 °F 15.8 °F 21.2 °F 74% 29.97 in 10.0 mi West 18.4 mph 23.0 mph N/A   Overcast